Miscellaneous Local Product
Issued by NWS Hastings, NE

Home | Current Version | Previous Version | Text Only | Print | Product List | Glossary On
Versions: 1 2 3 4 5 6 7 8 9 10 11 12 13 14 15 16 17 18 19 20 21 22 23 24 25 26 27 28 29 30 31 32 33 34 35 36 37 38 39 40 41 42 43 44 45 46 47 48 49 50
853
AXUS43 KGID 202002
MISGRI

GID CWA HOURLY WEATHER ROUNDUP
NATIONAL WEATHER SERVICE HASTINGS NE
200 PM CST FRI JAN 20 2017

NOTE: "FAIR" INDICATES FEW OR NO CLOUDS BELOW 12,000 FEET WITH NO
SIGNIFICANT WEATHER AND/OR OBSTRUCTIONS TO VISIBILITY.

...SOUTH CENTRAL NEBRASKA...

CITY           SKY/WX    TMP DP  RH WIND       PRES   REMARKS
GRAND ISLAND   CLOUDY    42  41  96 S8        29.41F
HASTINGS       CLOUDY    41  40  96 SE3       29.40F FOG
KEARNEY        CLOUDY    41  37  87 S7        29.39F
ORD            CLOUDY    40  38  93 S7        29.38F FOG
YORK           FOG       41  41 100 SE6       29.42F VSB 3/4
AURORA         CLOUDY    41  41 100 SE9       29.41F FOG
LEXINGTON      CLOUDY    40  37  92 W5        29.38F
HOLDREGE       FOG       39  38  97 CALM      29.38F VSB 3/4
HEBRON         CLOUDY    44  44 100 SE6       29.41F FOG

...NEBRASKA PANHANDLE...

CITY           SKY/WX    TMP DP  RH WIND       PRES   REMARKS
CHADRON        PTSUNNY   36  31  82 W10       29.35F WCI  28
ALLIANCE       CLOUDY    42  29  59 NW13      29.33F
SCOTTSBLUFF    CLOUDY    42  30  62 NW18G24   29.36F
SIDNEY         CLOUDY    42  28  57 NW18      29.35F

...WESTERN AND NORTH CENTRAL NEBRASKA...

CITY           SKY/WX    TMP DP  RH WIND       PRES   REMARKS
VALENTINE      CLOUDY    44  26  49 W12       29.32F
AINSWORTH      SUNNY     40  33  76 S14       29.34F WCI  32
ONEILL         CLOUDY    47  38  69 SW16      29.36F
BROKEN BOW     CLOUDY    41  38  89 SW6       29.37F
IMPERIAL       SUNNY     40  34  79 SE6       29.36F
NORTH PLATTE   PTSUNNY   43  35  73 S7        29.36F
MCCOOK         CLOUDY    37  35  92 W6        29.39F WCI  32

...EASTERN NEBRASKA...

CITY           SKY/WX    TMP DP  RH WIND       PRES   REMARKS
NORFOLK        CLOUDY    40  39  97 S9        29.42F FOG     WCI  34
SO SIOUX CITY  CLOUDY    42  41  96 S9        29.46F FOG
TEKAMAH        CLOUDY    42  40  92 SE8       29.47F FOG
COLUMBUS       CLOUDY    43  39  87 SE8       29.44F
ALBION         CLOUDY   N/A N/A N/A S5        29.40F FOG
OMAHA EPPLEY   CLOUDY    44  40  85 SE9       29.47F
OFFUTT AFB     CLOUDY    43  43 100 E6        29.46F
MILLARD        CLOUDY    45  44  97 SE6       29.46F
LINCOLN        CLOUDY    45  43  93 SE5       29.45F
NEBRASKA CITY  CLOUDY    43  43 100 E8        29.45F FOG
BEATRICE       CLOUDY    46  46 100 SE5       29.43F FOG
FALLS CITY     CLOUDY    46  45  96 E7        29.44F FOG

...NORTHERN KANSAS...

CITY           SKY/WX    TMP DP  RH WIND       PRES   REMARKS
GOODLAND       LGT SNOW  34  31  88 CALM      29.39F FOG
HILL CITY      CLOUDY    43  40  89 SW6       29.41S
NORTON         CLOUDY    39  37  93 SW3       29.38F
PHILLIPSBURG   CLOUDY    43  43 100 CALM      29.41S FOG
SMITH CENTER   CLOUDY    41  41 100 SE5       29.41S FOG
HAYS           CLOUDY    46  39  76 SW12      29.40F
RUSSELL        CLOUDY    47  42  83 SW10      29.39F
CONCORDIA      CLOUDY    45  45 100 CALM      29.40F FOG
SALINA         CLOUDY    48  46  93 CALM      29.41F FOG
TOPEKA         CLOUDY    50  48  93 SE7       29.44S FOG



USA.gov is the U.S. government's official web portal to all federal, state and local government web resources and services.